Regional Weather Roundup
Issued by NWS

Home | Current Version | Previous Version | Text Only | Print | Product List | Glossary On
Versions: 1 2 3 4 5 6 7 8 9 10 11 12 13 14 15 16 17 18 19 20 21 22 23 24 25 26 27 28 29 30 31 32 33 34 35 36 37 38 39 40 41 42 43 44 45 46 47 48 49 50
000
ASUS43 KTOP 280459
RWRKS

WEATHER ROUNDUP FOR KANSAS
NATIONAL WEATHER SERVICE GOODLAND KS
1200 AM CDT SAT MAR 28 2015

NOTE:  "FAIR" INDICATES FEW OR NO CLOUDS BELOW 12,000 FEET WITH NO
SIGNIFICANT WEATHER AND/OR OBSTRUCTIONS TO VISIBILITY.

KSZ001>006-013>018-027>032-041>047-280600-
NORTHWEST KANSAS

CITY           SKY/WX    TMP DP  RH WIND       PRES   REMARKS
GOODLAND       CLEAR     48  35  60 W9        30.02F
HAYS           PTCLDY    48  32  53 SW9       29.98R
HILL CITY      CLEAR     47  34  60 NE7       29.97R
RUSSELL        MOCLDY    46  35  65 SE13      29.98R
$$

KSZ061>065-074>080-084>089-280600-
SOUTHWEST KANSAS

CITY           SKY/WX    TMP DP  RH WIND       PRES   REMARKS
DODGE CITY     PTCLDY    47  34  60 S13       30.02F
ELKHART          N/A     56  31  38 S12         N/A
GARDEN CITY    PTCLDY    49  37  63 S8        30.01F
GREAT BEND     MOCLDY    45  32  61 S12       30.00F
LIBERAL        MOCLDY    52  32  46 SW10      30.06S
$$

KSZ066>073-081>083-090>101-280600-
SOUTHEAST KANSAS

CITY           SKY/WX    TMP DP  RH WIND       PRES   REMARKS
CHANUTE        MOCLDY    42  25  50 E7        30.12F
COFFEYVILLE    PTCLDY    42  30  62 SE5       30.12F
HUTCHINSON     CLOUDY    45  32  60 SE9       30.05S
MEDICINE LODGE   N/A     44  35  70 S7        30.05S
NEWTON         CLOUDY    43  28  56 SE9       30.09S
PARSONS        PTCLDY    42  27  55 CALM      30.13F
WICHITA INTL   CLOUDY    45  29  53 S10       30.07S
WICHITA JABRA  CLOUDY    45  30  55 S7        30.07S
WINFIELD       MOCLDY    45  31  58 SE6       30.09F
$$

KSZ007>012-019>026-033>040-048>060-102>105-280600-
NORTHEAST KANSAS

CITY           SKY/WX    TMP DP  RH WIND       PRES   REMARKS
CONCORDIA      CLOUDY    39  25  57 E7        30.04F
EMPORIA        MOCLDY    35  22  58 E8        30.10S
LAWRENCE       CLOUDY    39  25  57 E6        30.13F
MANHATTAN      PTCLDY    38  22  52 SE9       30.09F
OLATHE IND     CLOUDY    40  23  50 E6        30.13F
OLATHE EXE     CLOUDY    40  21  46 E7        30.12F
SALINA         CLOUDY    46  30  53 SE9       30.06F
TOPEKA BILLARD CLOUDY    40  22  48 E8        30.12F
TOPEKA FORBES  CLOUDY    40  24  53 SE8       30.11F
$$



USA.gov is the U.S. government's official web portal to all federal, state and local government web resources and services.